Orbital Elements at Epoch 2459200.5 (2020-Dec-17.0) TDB
Reference: JPL 39 (heliocentric ecliptic J2000)
Element | Value | Uncertainty (1-sigma) | Units |
e | .1883821364349668 | 2.6371e-08 | |
a | 2.672519985533533 | 9.1109e-09 | au |
q | 2.169064960993579 | 6.9771e-08 | au |
i | 12.71906676700514 | 3.7749e-06 | deg |
node | 196.2623210897774 | 1.3183e-05 | deg |
peri | 131.5125317605128 | 1.6751e-05 | deg |
M | 125.4443718466381 | 9.6777e-06 | deg |
tp | 2458644.431172622029 (2019-Jun-09.93117262) | 4.2557e-05 | TDB |
period | 1595.80517570613 4.37 | 8.1604e-06 2.234e-08 | d yr |
n | .2255914478035849 | 1.1536e-09 | deg/d |
Q | 3.175975010073486 | 1.0827e-08 | au |
|
| | Orbit Determination Parameters
Additional Information
|